Location: Saint John
(45.2733°N, 66.0633°W)
Time: 12:38:18
(UTC-03:00)

Envisat - Visible Passes

Search period start: 23 October 2021 00:00
Search period end: 02 November 2021 00:00
Orbit: 764 x 766 km, 98.2° (Epoch: 22 October)

Date Brightness Start Highest point End Pass type
(mag) Time Alt. Az. Time Alt. Az. Time Alt. Az.
23 Oct 5.8 05:19:32 10° NE 05:22:49 17° E 05:26:04 10° SE visible
23 Oct 3.0 06:57:14 10° N 07:02:17 64° WNW 07:07:18 10° SSW visible
24 Oct 3.6 06:20:23 10° NNE 06:25:26 61° E 06:30:27 10° S visible
24 Oct 6.7 19:20:33 10° W 19:21:42 11° W 19:22:53 10° WNW visible
25 Oct 5.0 05:44:00 10° NE 05:48:24 28° E 05:52:45 10° SSE visible
26 Oct 6.1 05:08:43 10° ENE 05:11:08 13° E 05:13:34 10° ESE visible
26 Oct 2.9 06:45:40 10° NNE 06:50:47 80° WNW 06:55:51 10° SSW visible
27 Oct 4.0 06:08:57 10° NNE 06:13:52 48° E 06:18:46 10° S visible
27 Oct 6.3 19:07:26 10° WSW 19:10:02 14° W 19:12:37 10° WNW visible
28 Oct 5.4 05:32:46 10° NE 05:36:46 23° E 05:40:44 10° SE visible
28 Oct 3.2 07:11:09 10° N 07:16:01 48° WNW 07:20:53 10° SW visible
29 Oct 6.3 04:58:50 10° ENE 04:59:27 10° E 05:00:04 10° E visible
29 Oct 3.1 06:34:08 10° NNE 06:39:15 82° ESE 06:44:20 10° SSW visible
30 Oct 4.5 05:57:32 10° NNE 06:02:17 38° E 06:06:59 10° SSE visible
30 Oct 6.0 18:54:58 10° SW 18:58:21 18° W 19:01:45 10° NW visible
31 Oct 5.7 05:21:38 10° NE 05:25:08 18° E 05:28:34 10° SE visible
31 Oct 3.0 06:59:31 10° N 07:04:32 60° WNW 07:09:31 10° SSW visible
01 Nov 3.4 06:22:38 10° NNE 06:27:43 65° ESE 06:32:44 10° S visible
